Location: Antioch Church
(34.9543°N, 88.5145°W)
Time: 04:18:04
(UTC+00:00)

Cosmos 407 Rocket - Pass Details

Date: 11 December 2019
Orbit: 743 x 787 km, 74.0° (Epoch: 18 January)

Event Time Altitude Azimuth Distance (km) Brightness Sun altitude
Rises 00:24:01 0° 210° (SSW) 3,181 7.4 -20.2°
Reaches altitude 10° 00:26:26 10° 216° (SW) 2,267 6.6 -20.7°
Maximum altitude 00:31:23 48° 291° (WNW) 982 4.3 -21.6°
Enters shadow 00:36:08 12° 4° (N) 2,195 5.7 -22.6°
